Location: Del Oro Observatory
(38.3044°N, 104.8119°W)
Time: 13:48:40
(UTC-06:00)

Iridium 35 - Visible Passes

Search period start: 23 August 2014 00:00
Search period end: 02 September 2014 00:00
Orbit: 776 x 779 km, 86.4° (Epoch: 23 August)

Date Brightness Start Highest point End Pass type
(mag) Time Alt. Az. Time Alt. Az. Time Alt. Az.
23 Aug 7.6 03:41:24 10° ESE 03:44:39 17° E 03:47:55 10° NE visible
23 Aug 5.2 05:19:52 10° SSW 05:24:53 50° W 05:29:57 10° N visible
24 Aug 5.0 04:46:08 10° S 04:51:20 87° E 04:56:34 10° N visible
25 Aug 6.0 04:13:15 12° SSE 04:17:54 46° E 04:22:51 10° NNE visible
25 Aug 6.5 05:55:16 10° WSW 05:58:50 19° WNW 06:02:26 10° NNW visible
26 Aug 7.0 03:40:30 10° SE 03:44:35 25° E 03:48:43 10° NNE visible
26 Aug 5.7 05:21:01 13° SW 05:25:04 34° W 05:29:48 10° NNW visible
27 Aug 7.7 03:09:04 10° ESE 03:11:23 13° ENE 03:13:42 10° NE visible
27 Aug 5.0 04:48:13 23° SSW 04:51:26 64° W 04:56:38 10° N visible
28 Aug 5.3 04:15:22 30° SSE 04:17:56 68° E 04:23:07 10° N visible
28 Aug 6.8 05:56:58 10° W 05:59:09 13° WNW 06:01:21 10° NW visible
29 Aug 6.4 03:42:30 26° SE 03:44:32 36° E 03:49:15 10° NNE visible
29 Aug 6.2 05:23:00 18° WSW 05:25:18 24° W 05:29:27 10° NNW visible
30 Aug 7.2 03:09:35 17° ESE 03:11:16 19° E 03:14:53 10° NE visible
30 Aug 5.4 04:50:05 35° SW 04:51:36 43° W 04:56:34 10° NNW visible
31 Aug 4.9 04:17:09 63° SSW 04:18:01 83° W 04:23:15 10° N visible
01 Sep 5.6 03:44:11 51° ESE 03:44:33 52° E 03:49:36 10° NNE visible
01 Sep 6.6 05:24:41 16° W 05:25:35 16° WNW 05:28:48 10° NW visible
